Regional Weather Roundup
Issued by NWS Albany, NY

Home | Current Version | Previous Version | Text Only | Print | Product List | Glossary On
Versions: 1 2 3 4 5 6 7 8 9 10 11 12 13 14 15 16 17 18 19 20 21 22 23 24 25 26 27 28 29 30 31 32 33 34 35 36 37 38 39 40 41 42 43 44 45 46 47 48 49 50
000
ASUS41 KALY 082310
RWRALY

NEW YORK STATE HOURLY WEATHER ROUNDUP
NATIONAL WEATHER SERVICE ALBANY NY
600 PM EST MON FEB 08 2016

NOTE: "FAIR" INDICATES FEW OR NO CLOUDS BELOW 12,000 FEET WITH NO
SIGNIFICANT WEATHER AND/OR NO OBSTRUCTIONS TO VISIBILITY.

NYZ032-033-038>043-046>054-057>066-NYZ062>081-090000-
EAST


CITY           SKY/WX    TMP DP  RH WIND       PRES   REMARKS
ALBANY         LGT SNOW  25  19  78 E6        29.81S WCI  18
GLENS FALLS    LGT SNOW  27  18  69 E9        29.81R WCI  18
POUGHKEEPSIE   LGT SNOW  29  22  75 N5        29.77R WCI  24
NEWBURGH       CLOUDY    28  23  80 NE9       29.76R WCI  20
MONTGOMERY     CLOUDY    30  20  66 E9        29.76R WCI  22
WHITE PLAINS   FLURRIES  27  21  78 N7        29.74R WCI  19
ISLIP          CLOUDY    27  22  81 N13       29.74R WCI  16
NEW YORK CITY  FLURRIES  32  23  69 NE9       29.77R WCI  24
CENTRAL PARK   CLOUDY    32  21  64 VRB7      29.78R WCI  26
$$

NYZ005>009-017-018-044>046-055-056-090000-
CENTRAL


CITY           SKY/WX    TMP DP  RH WIND       PRES   REMARKS
FULTON         CLOUDY    37  16  42 VRB5      29.69R WCI  33
SYRACUSE       CLOUDY    34  16  47 E15G22    29.68S WCI  24
ROME           CLOUDY    32   9  38 SE9       29.74R WCI  24
ELMIRA         CLOUDY    39  25  57 SE9       29.63S WCI  33
BINGHAMTON     CLOUDY    35  10  35 S5        29.62S WCI  31
MONTICELLO     CLOUDY    28  10  47 SE9       29.70R WCI  20
$$

NYZ026>034-041>043-090000-
NORTH


CITY           SKY/WX    TMP DP  RH WIND       PRES   REMARKS
WATERTOWN      CLOUDY    26  13  57 NE15      29.74R WCI  14
FORT DRUM      NOT AVBL
MASSENA        CLOUDY    21   6  52 E18       29.83F WCI   6
SARANAC LAKE   CLOUDY    21  10  62 NE13      29.69F WCI   9
PLATTSBURGH    CLOUDY    23   5  46 N13       29.84S WCI  11
$$

NYZ001>004-010>016-019>021-090000-
WEST


CITY           SKY/WX    TMP DP  RH WIND       PRES   REMARKS
NIAGARA FALLS  CLOUDY    43  25  49 E13       29.57R
BUFFALO        CLOUDY    42  25  50 E13       29.57S
DUNKIRK        CLOUDY    42  27  55 SE8       29.56S
JAMESTOWN      CLOUDY    37  21  52 SE8       29.53R WCI  31
WELLSVILLE     CLOUDY    36  19  50 S9        29.57S WCI  29
ROCHESTER      CLOUDY    39  26  59 E8        29.63S WCI  33
PENN YAN       CLOUDY    38  24  57 E6        29.63S WCI  33
$$

             KEY
       WCI = WIND CHILL INDEX
       VSB = VISIBILITY
       HX  = HEAT INDEX
$$



USA.gov is the U.S. government's official web portal to all federal, state and local government web resources and services.